Flag for Canada Past Weather in Conception Bay South, Newfoundland and Labrador, Canada — Yesterday and Last 2 Weeks

Now
57 °F

Fog.


Feels Like: 57 °F
Forecast: 56 / 70 °F
Wind: 3 mph from Northwest

Location: St. John's

Current Time: Jul 26, 2016 at 2:17:47 AM

Latest Report: Jul 26, 2016 at 1:30 AM


Visibility: 0 mi

Pressure: 29.91 "Hg

Humidity: 100%

Dew Point: 57 °F

Location of Conception Bay SouthLocation

Past Weather in Conception Bay South — Graph

°F

Conception Bay South Temperature Yesterday

Maximum temperature yesterday: 75 °F (at 2:30 PM)
Minimum temperature yesterday: 55 °F (at 10:30 PM)
Average temperature yesterday: 66 °F

High & Low Weather Summary for the Past Weeks

 TemperatureHumidityPressure
High79 °F (Jul 22, 3:30 PM)100% (Jul 11, 2:30 AM)30.17 "Hg (Jul 11, 2:30 AM)
Low41 °F (Jul 13, 11:30 PM)39% (Jul 17, 10:30 AM)29.42 "Hg (Jul 12, 4:30 AM)
Average62 °F83%29.89 "Hg
* Reported Jul 11 12:30 AM — Jul 26 12:30 AM, Conception Bay South, Weather by CustomWeather, © 2016

Note: Actual official high and low records may vary slightly from our data, if they occured in-between our weather recording intervals... More about our weather records

Advertising

Conception Bay South Weather History for the Previous 24 Hours

Scroll right to see more
 ConditionsComfort  
Time TempWeatherWind HumidityBarometerVisibility
12:30 AM
Tue, Jul 26
57 °FFog.2 mph94%29.91 "Hg1 mi
11:30 PM
Mon, Jul 25
55 °FFog.5 mph94%29.91 "Hg0 mi
10:30 PM55 °FFog.3 mph94%29.90 "Hg15 mi
9:30 PM64 °FPassing clouds.3 mph88%29.88 "Hg15 mi
8:30 PM66 °FScattered clouds.2 mph83%29.87 "Hg15 mi
7:30 PM70 °FPartly sunny.6 mph83%29.86 "Hg15 mi
6:30 PM73 °FPartly sunny.5 mph74%29.86 "Hg15 mi
5:30 PM72 °FPartly sunny.6 mph78%29.86 "Hg15 mi
4:30 PM72 °FPartly sunny.5 mph78%29.86 "Hg15 mi
3:30 PM73 °FBroken clouds.5 mph74%29.87 "Hg15 mi
2:30 PM75 °FScattered clouds.9 mph69%29.86 "Hg15 mi
1:30 PM73 °FPartly sunny.6 mph74%29.87 "Hg15 mi
12:30 PM70 °FPartly sunny.5 mph83%29.88 "Hg15 mi
11:30 AM68 °FOvercast.6 mph83%29.88 "Hg15 mi
10:30 AM64 °FLow clouds.6 mph94%29.89 "Hg12 mi
9:30 AM64 °FLow clouds.5 mph88%29.90 "Hg12 mi
8:30 AM63 °FLow clouds.7 mph94%29.90 "Hg12 mi
7:30 AM63 °FLow clouds.5 mph100%29.90 "Hg12 mi
6:30 AM63 °FLow clouds.5 mph94%29.89 "Hg10 mi
5:30 AM61 °FFog.6 mph100%29.88 "Hg5 mi
4:30 AM63 °FDrizzle. Fog.6 mph94%29.89 "Hg3 mi
3:30 AM63 °FDrizzle. Fog.5 mph100%29.89 "Hg4 mi
2:30 AM64 °FDrizzle. Mostly cloudy.6 mph94%29.88 "Hg10 mi
Weather by CustomWeather, © 2016

See weather overviewHow to use our weather pages